Regional Weather Roundup
Issued by NWS

Home | Current Version | Previous Version | Graphics & Text | Print | Product List | Glossary On
Versions: 1 2 3 4 5 6 7 8 9 10 11 12 13 14 15 16 17 18 19 20 21 22 23 24 25 26 27 28 29 30 31 32 33 34 35 36 37 38 39 40 41 42 43 44 45 46 47 48 49 50
000
ASUS43 KBIS 050810
RWRND

NORTH DAKOTA REGIONAL WEATHER ROUNDUP
NATIONAL WEATHER SERVICE BISMARCK ND
300 AM CDT WED AUG 05 2015

NOTE: "FAIR" INDICATES FEW OR NO CLOUDS BELOW 12,000 FEET WITH NO
SIGNIFICANT WEATHER AND/OR OBSTRUCTIONS TO VISIBILITY.


NDZ001>003-009>011-017-050900-
NORTHWEST NORTH DAKOTA

CITY           SKY/WX    TMP DP  RH WIND       PRES   REMARKS
WILLISTON      CLOUDY    70  60  70 CALM      29.93F
MINOT          CLOUDY    63  54  72 SE10      29.95F
MINOT AFB      CLOUDY    61  58  88 SE10      29.94F
$$

NDZ018>021-031>035-040>046-050900-
SOUTHWEST NORTH DAKOTA

CITY           SKY/WX    TMP DP  RH WIND       PRES   REMARKS
BISMARCK       CLOUDY    64  58  80 E6        29.99S
DICKINSON      CLOUDY    62  59  90 CALM      29.95F
GARRISON         N/A     65  60  84 SE8       29.97S
HETTINGER ARPT CLOUDY    64  61  90 CALM      30.00R
$$

NDZ004>008-012>016-024-026-027-054-050900-
NORTHEAST NORTH DAKOTA

CITY           SKY/WX    TMP DP  RH WIND       PRES   REMARKS
GRAND FORKS    PTCLDY    57  52  83 CALM      30.04R
GRND FRKS AFB  PTCLDY    51  50  95 CALM      30.04S
DEVILS LAKE    PTCLDY    61  52  72 SE9       30.03F
$$

NDZ022-023-025-028>030-036>039-047>053-050900-
SOUTHEAST NORTH DAKOTA

CITY           SKY/WX    TMP DP  RH WIND       PRES   REMARKS
FARGO          CLEAR     57  52  83 E5        30.03S
JAMESTOWN      PTCLDY    58  53  84 E3        30.02F
$$



USA.gov is the U.S. government's official web portal to all federal, state and local government web resources and services.